Location: ????????
(55.4000°N, 39.1167°E)
Time: 17:16:53
(UTC+00:00)

SeaSat 1 - Pass Details

Date: 19 May 2025
Orbit: 738 x 740 km, 108.0° (Epoch: 20 June)

Event Time Altitude Azimuth Distance (km) Brightness Sun altitude
Exits shadow 18:17:30 - 127° (SE) 2,590 4.6 -5.3°
Reaches altitude 10° 18:18:21 10° 125° (SE) 2,249 4.3 -5.4°
Maximum altitude 18:23:08 57° 48° (NE) 877 2.9 -5.8°
Drops below altitude 10° 18:27:57 10° 331° (NNW) 2,262 6.6 -6.3°
Sets 18:30:14 0° 328° (NNW) 3,189 8.1 -6.5°
